Regional Weather Roundup
Issued by NWS Charleston, SC

Current Version | Previous Version | Text Only | Print | Product List | Glossary Off
Versions: 1 2 3 4 5 6 7 8 9 10 11 12 13 14 15 16 17 18 19 20 21 22 23 24 25 26 27 28 29 30 31 32 33 34 35 36 37 38 39 40 41 42 43 44 45 46 47 48 49 50

000
ASUS42 KCHS 040912
RWRCHS

REGIONAL WEATHER ROUNDUP
NATIONAL WEATHER SERVICE CHARLESTON SC
400 AM EST SUN DEC 04 2016

NOTE: "FAIR" INDICATES FEW OR NO CLOUDS BELOW 12,000 FEET WITH NO
SIGNIFICANT WEATHER AND/OR OBSTRUCTIONS TO VISIBILITY.

NOT ALL STATIONS ARE QUALITY CONTROLLED. USE DATA WITH CAUTION...
ESPECIALLY DEWPOINT OBSERVATIONS.

SCZ027-030-031-034>040-042>050-041000-
...SOUTHEAST SOUTH CAROLINA...

CITY           SKY/WX    TMP DP  RH WIND       PRES   REMARKS
N CHARLESTON   CLOUDY    50  37  61 NE7       30.23S
WATERFRONT PRK   N/A     53  43  68 N9        30.21S
MOUNT PLEASANT NOT AVBL
JOHNS ISLAND   FAIR      52  41  66 N6        30.22S
PINOPOLIS        N/A     50  36  57 E5        30.16R
MONCKS CORNER  CLOUDY    48  36  61 CALM      30.23F
SUMMERVILLE    CLOUDY    48  43  81 N3        30.24F
BEAUFORT MCAS  CLOUDY    51  41  68 NE7       30.21S
BEAUFORT ARPT  CLOUDY    52  43  71 NE8       30.21R
HILTON HEAD IS CLOUDY    57  46  67 N8        30.21R
WALTERBORO     PTSUNNY   50  41  71 NE5       30.23F
ALLENDALE      CLOUDY    50  41  71 VRB5      30.20F

...SOUTHERN MIDLANDS AND PEE DEE...

CITY           SKY/WX    TMP DP  RH WIND       PRES   REMARKS
GEORGETOWN     NOT AVBL
KINGSTREE      CLOUDY    45  37  76 CALM      30.25R
ORANGEBURG     CLOUDY    48  42  80 E3        30.23F
BARNWELL       NOT AVBL
AIKEN          NOT AVBL
MANNING        NOT AVBL
COLUMBIA       CLOUDY    49  44  83 CALM      30.23F
SUMTER         MOCLDY    47  42  83 CALM      30.22F
FLORENCE       CLOUDY    47  43  86 CALM      30.25S
MYRTLE BEACH   CLOUDY    48  34  57 N7        30.25S
N MYRTLE BEACH CLOUDY    47  35  63 N6        30.22F

$$

GAZ063-065-086>088-099>101-113>116-118-119-134>141-150-041000-
...SOUTHEAST GEORGIA...

CITY           SKY/WX    TMP DP  RH WIND       PRES   REMARKS
SAVANNAH ARPT  CLOUDY    53  43  68 NE8       30.19S
HUNTER AAF     CLOUDY    55  48  78 NE7       30.16S
FORT STEWART   CLOUDY    52  44  73 CALM      30.14S
STATESBORO     CLOUDY    51  43  74 CALM      30.18F
SYLVANIA       CLOUDY   N/A N/A N/A E7        30.20F
CLAXTON        CLOUDY    52  46  78 NE6       30.18F

...CSRA...CENTRAL AND FAR SOUTHEAST GEORGIA...

CITY           SKY/WX    TMP DP  RH WIND       PRES   REMARKS
THOMSON        CLOUDY    49  46  90 E3        30.23F
AUGUSTA-BUSH   CLOUDY    50  42  74 E6        30.20F
AUGUSTA-DANIEL CLOUDY    50  40  68 E7        30.20F
SWAINSBORO     PTSUNNY   52  41  66 E9        30.17F
VIDALIA        CLOUDY    54  46  76 E8        30.16F
EASTMAN        CLOUDY    54  34  47 E6        30.15F
HAZLEHURST     FAIR      54  44  69 E6        30.13F
ALMA           CLOUDY    53  46  77 E6        30.13F
WAYCROSS       PTCLDY    55  52  89 E8        30.12F
JESUP          FAIR      52  50  93 NE3       30.16R
BAXLEY         FAIR      52  48  87 NE6       30.14F
BRUNSWICK      MOCLDY    59  54  82 E8        30.15F
SAINT SIMONS   PTCLDY    62  53  72 E12       30.14F

$$

SCZ027-028-034-036>038-045-046-048>050-GAZ119-141-041000-
...LAKE AND SUPPLEMENTAL COASTAL OBSERVATIONS...

STATION/POSITION TIME  TEMP    WIND        PRES    WAVE   SWELL
                       AIR SEA DIR/SP/G            HT/PER HT/PER/DIR
                 (UTC) (F)     (DEG/KT/KT) (MB)    (FT/S) (FT/S/D)
WINYAH BAY       0745   50     360/  3     1023.0
LAKE MURRAY      0820   50      40/  2/  4 1023.4
ACE BASIN NERRS  0745   51      20/  1     1023.0
FORT PULASKI     0848   59 62   70/ 11/ 13 1022.4R
SAPELO ISLAND    0800   60      70/  7     1022.0

$$

ANZ835-935-AMZ111-154-330-350-352-354-370-450-454-472-041000-
...C-MAN AND BUOY OBSERVATIONS...

STATION/POSITION TIME  TEMP    WIND        PRES    WAVE   SWELL
                       AIR SEA DIR/SP/G            HT/PER HT/PER/DIR
                 (UTC) (F)     (DEG/KT/KT) (MB)    (FT/S) (FT/S/D)
BUOY 41004       0850   61 74   50/  8/ 12 1021.8F   3/ 8   2/ 90/ 8
BUOY 41008       0850   64 64   90/ 16/ 17 1020.8F   4/ 5   2/110/ 8
FOLLY BEACH CMAN 0800   53      20/ 10/ 12 1023.5F
CAPERS NEARSHORE 0808   56 62   60/ 12/ 14 1023.0S
FRIPP NEARSHORE  0808   58 62   80/ 12/ 16 1022.3F


STATION/POSITION TIME  TEMP    WIND        PRES    WAVE   SWELL
                       AIR SEA DIR/SP/G            HT/PER HT/PER/DIR
                 (UTC) (F)     (DEG/KT/KT) (MB)    (FT/S) (FT/S/D)
5E ST. MARYS GA  0830      66                N/A     4/ 6
FRYING PAN BUOY  0850   59 73   40/ 10/ 16 1022.4S   3/ 9   3/ 90/ 9
BUOY 41025       0850   53 75   20/ 16/ 21 1022.9F   5/ 9   3/ 50/ 9
CAPE LOOKOUT NC  0800   49      10/  9/ 11 1023.4F
BUOY 41002       0850   64 73   40/ 12/ 16 1020.9F   5/ 9   5/ 50/ 9
BUOY 41010       NOT AVBL
ST AUGUSTINE FL  0900   68 66   90/  9/ 10 1020.5F


$$




USA.gov is the U.S. government's official web portal to all federal, state and local government web resources and services.